STARLINK-1830, 46727

Orbit data source: Space-Track

STARLINK-1830, 46727 is a payload satellite owned by SpaceX/Seattle (US) in LEO that was launched on Sun, 18 Oct 2020 UTC via an FALCON 9 launch vehicle from the Air Force Eastern Test Range (AFETR). Payload-class satellites include a variety of spacecraft equipped with specific instruments for various scientific and technological missions. These include communications satellites like Starlink; space stations such as the ISS; scientific satellites like the Hubble; Earth observation satellites from companies like Planet Labs, Umbra, and HawkEye 360; GPS; miniature CubeSats for education and research; and military/defense satellites.

Loading next visibility...
Identifier
46727, 2020-073BK
Orbit
LEO
Country
Flag of USUS
Related business
Manufacturer
SpaceX/Seattle
Mission
Operational Commercial Communications
Bus & Motor
STARLINK, Unknown motor
Mass
260 kg wet, ~248 kg dry
Launch date (UTC)
2020-10-18 (5 years ago)
Launch vehicle
FALCON 9
Launch site
Air Force Eastern Test Range (AFETR)
Object type
Payload
Rocket body
Debris
Shape & HBR
Box + 1 Pan, 10.1 m
Radar Cross Section
13.562 m², Large (>1 m²)

Expand to show TLE details & history
Last TLE update: 3 hours ago

TLE from 3 hours ago
0 STARLINK-1830
1 46727U 20073BK  25300.00002315  .01058056  00000-0  37222-1 0  9991
2 46727  53.0546  96.1139 0001242  82.5170 248.1018 15.25952779  5799
Epoch: 2025-10-27T00:00Z
TLE epoch observation values (Epoch: 2025-10-27T00:00:02.000Z)
Latitude
-23.2873°
Longitude
41.71921°
Altitude
494.897 km
Speed
7.617 km/s
True Right ascension
05h 09m 20s
True Declination
-23° 09' 28"
Sunlit
Object was in full shadow at epoch
Visualization orbit readout
Latitude
Unknown
Longitude
Unknown
Altitude
Unknown
Speed
Unknown
Apparent Right ascension
Unknown
Apparent Declination
Unknown
Sunlit
N/A
Visualization observer readout
Local Sidereal Time
22:43:08
Azimuth
Unknown
Elevation
Unknown
Doppler factor
Unknown
Orbital elements
Apogee altitude
489.052 km
Perigee altitude
487.346 km
Semi-major axis
6,866.336 km
Eccentricity
0.00012
Inclination
53.0546°
RAAN
96.1139°
Arg. of periapsis
82.517°
True anomaly
248.0886°
Mean anomaly
248.1018°
Eccentric anomaly
248.0952°
Mean motion
3.81466 °/min
Orbital period
94.37 mins
BSTAR
0.037222
Loading maneuver chart data...
Computing Atmospheric mass density...

Documentation

Showing up to 5 results
|